Time,TemperatureF,DewpointF,PressureIn,WindDirection,WindDirectionDegrees,WindSpeedMPH,WindSpeedGustMPH,Humidity,HourlyPrecipIn,Conditions,Clouds,dailyrainin,SolarRadiationWatts/m^2,SoftwareType,DateUTC
2013-02-25 00:11:00,8.0,4.0,-100.00,NNW,331,2.0,3.0,82,0.00,,,0.00,0.000000,,2013-02-25 07:11:00,
2013-02-25 00:21:00,8.0,4.0,-100.00,NNW,331,2.0,3.0,82,0.00,,,0.00,0.000000,,2013-02-25 07:21:00,
2013-02-25 00:32:00,8.0,4.0,-100.00,NNW,331,2.0,3.0,82,0.00,,,0.00,0.000000,,2013-02-25 07:32:00,
2013-02-25 00:41:00,8.0,4.0,-100.00,NNW,331,2.0,3.0,82,0.00,,,0.00,0.000000,,2013-02-25 07:41:00,
2013-02-25 00:51:00,8.0,4.0,-100.00,NNW,331,2.0,3.0,82,0.00,,,0.00,0.000000,,2013-02-25 07:51:00,
2013-02-25 01:21:00,6.0,1.0,-100.00,NNW,336,2.0,3.0,81,0.00,,,-99.99,0.000000,,2013-02-25 08:21:00,
2013-02-25 01:32:00,6.0,1.0,-100.00,NNW,336,2.0,3.0,81,0.00,,,-99.99,0.000000,,2013-02-25 08:32:00,
2013-02-25 01:41:00,6.0,1.0,-100.00,NNW,336,2.0,3.0,81,0.00,,,-99.99,0.000000,,2013-02-25 08:41:00,
2013-02-25 01:52:00,6.0,1.0,-100.00,NNW,336,2.0,3.0,81,0.00,,,-99.99,0.000000,,2013-02-25 08:52:00,
2013-02-25 02:21:00,5.0,0.0,-100.00,NNW,328,3.0,4.0,81,0.00,,,0.00,0.000000,,2013-02-25 09:21:00,
2013-02-25 02:32:00,5.0,0.0,-100.00,NNW,328,3.0,4.0,81,0.00,,,0.00,0.000000,,2013-02-25 09:32:00,
2013-02-25 02:42:00,5.0,0.0,-100.00,NNW,328,3.0,4.0,81,0.00,,,0.00,0.000000,,2013-02-25 09:42:00,
2013-02-25 02:51:00,5.0,0.0,-100.00,NNW,328,3.0,4.0,81,0.00,,,0.00,0.000000,,2013-02-25 09:51:00,
2013-02-25 03:21:00,3.0,-2.0,-100.00,NNW,339,2.0,4.0,78,0.00,,,0.00,0.000000,,2013-02-25 10:21:00,
2013-02-25 03:32:00,3.0,-2.0,-100.00,NNW,339,2.0,4.0,78,0.00,,,0.00,0.000000,,2013-02-25 10:32:00,
2013-02-25 03:42:00,3.0,-2.0,-100.00,NNW,339,2.0,4.0,78,0.00,,,0.00,0.000000,,2013-02-25 10:42:00,
2013-02-25 03:52:00,3.0,-2.0,-100.00,NNW,339,2.0,4.0,78,0.00,,,0.00,0.000000,,2013-02-25 10:52:00,
2013-02-25 04:21:00,1.0,-4.0,-100.00,NNW,332,2.0,3.0,78,0.00,,,0.00,0.000000,,2013-02-25 11:21:00,
2013-02-25 05:21:00,-1.0,-6.0,-100.00,NNW,336,3.0,4.0,77,0.00,,,0.00,0.000000,,2013-02-25 12:21:00,
2013-02-25 06:22:00,-1.0,-7.0,-100.00,NNW,333,3.0,4.0,76,-99.99,,,0.00,0.000000,,2013-02-25 13:22:00,
2013-02-25 07:22:00,-2.0,-8.0,-100.00,NNW,342,4.0,5.0,75,-99.99,,,0.00,3.000000,,2013-02-25 14:22:00,
2013-02-25 07:32:00,-2.0,-8.0,-100.00,NNW,342,4.0,5.0,75,-99.99,,,0.00,3.000000,,2013-02-25 14:32:00,
2013-02-25 08:22:00,4.0,-2.0,-100.00,NNW,342,3.0,5.0,76,-99.99,,,0.00,48.000000,,2013-02-25 15:22:00,
2013-02-25 08:32:00,4.0,-2.0,-100.00,NNW,342,3.0,5.0,76,-99.99,,,0.00,48.000000,,2013-02-25 15:32:00,
2013-02-25 08:41:00,4.0,-2.0,-100.00,NNW,342,3.0,5.0,76,-99.99,,,0.00,48.000000,,2013-02-25 15:41:00,
2013-02-25 08:51:00,4.0,-2.0,-100.00,NNW,342,3.0,5.0,76,-99.99,,,0.00,48.000000,,2013-02-25 15:51:00,
2013-02-25 09:21:00,20.0,13.0,-100.00,NNW,343,2.0,4.0,75,-99.99,,,0.00,297.000000,,2013-02-25 16:21:00,
2013-02-25 09:32:00,20.0,13.0,-100.00,NNW,343,2.0,4.0,75,-99.99,,,0.00,297.000000,,2013-02-25 16:32:00,
2013-02-25 09:42:00,20.0,13.0,-100.00,NNW,343,2.0,4.0,75,-99.99,,,0.00,297.000000,,2013-02-25 16:42:00,
2013-02-25 09:51:00,20.0,13.0,-100.00,NNW,343,2.0,4.0,75,-99.99,,,0.00,297.000000,,2013-02-25 16:51:00,
2013-02-25 10:21:00,36.0,16.0,-100.00,NNW,345,1.0,4.0,43,0.02,,,0.02,490.000000,,2013-02-25 17:21:00,
2013-02-25 10:32:00,36.0,16.0,-100.00,NNW,345,1.0,4.0,43,0.02,,,0.02,490.000000,,2013-02-25 17:32:00,
2013-02-25 10:42:00,36.0,16.0,-100.00,NNW,345,1.0,4.0,43,0.02,,,0.02,490.000000,,2013-02-25 17:42:00,
2013-02-25 10:52:00,36.0,16.0,-100.00,NNW,345,1.0,4.0,43,0.02,,,0.02,490.000000,,2013-02-25 17:52:00,
2013-02-25 11:21:00,42.0,2.0,-100.00,SSE,157,4.0,12.0,18,0.00,,,0.02,644.000000,,2013-02-25 18:21:00,
2013-02-25 11:32:00,42.0,2.0,-100.00,SSE,157,4.0,12.0,18,0.00,,,0.02,644.000000,,2013-02-25 18:32:00,
2013-02-25 11:42:00,42.0,2.0,-100.00,SSE,157,4.0,12.0,18,0.00,,,0.02,644.000000,,2013-02-25 18:42:00,
2013-02-25 11:51:00,42.0,2.0,-100.00,SSE,157,4.0,12.0,18,0.00,,,0.02,644.000000,,2013-02-25 18:51:00,
2013-02-25 12:21:00,44.0,3.0,-100.00,SSE,163,6.0,11.0,18,0.00,,,0.02,712.000000,,2013-02-25 19:21:00,
2013-02-25 12:32:00,44.0,3.0,-100.00,SSE,163,6.0,11.0,18,0.00,,,0.02,712.000000,,2013-02-25 19:32:00,
2013-02-25 12:42:00,44.0,3.0,-100.00,SSE,163,6.0,11.0,18,0.00,,,0.02,712.000000,,2013-02-25 19:42:00,
2013-02-25 12:52:00,44.0,3.0,-100.00,SSE,163,6.0,11.0,18,0.00,,,0.02,712.000000,,2013-02-25 19:52:00,
2013-02-25 13:21:00,43.0,13.0,-100.00,SE,146,12.0,16.0,29,0.00,,,0.02,737.000000,,2013-02-25 20:21:00,
2013-02-25 13:32:00,43.0,13.0,-100.00,SE,146,12.0,16.0,29,0.00,,,0.02,737.000000,,2013-02-25 20:32:00,
2013-02-25 13:42:00,43.0,13.0,-100.00,SE,146,12.0,16.0,29,0.00,,,0.02,737.000000,,2013-02-25 20:42:00,
2013-02-25 13:52:00,43.0,13.0,-100.00,SE,146,12.0,16.0,29,0.00,,,0.02,737.000000,,2013-02-25 20:52:00,
2013-02-25 14:21:00,45.0,8.0,-100.00,SE,144,7.0,17.0,22,0.00,,,0.02,609.000000,,2013-02-25 21:21:00,
2013-02-25 14:32:00,45.0,8.0,-100.00,SE,144,7.0,17.0,22,0.00,,,0.02,609.000000,,2013-02-25 21:32:00,
2013-02-25 14:42:00,45.0,8.0,-100.00,SE,144,7.0,17.0,22,0.00,,,0.02,609.000000,,2013-02-25 21:42:00,
2013-02-25 14:51:00,45.0,8.0,-100.00,SE,144,7.0,17.0,22,0.00,,,0.02,609.000000,,2013-02-25 21:51:00,
2013-02-25 15:21:00,47.0,3.0,-100.00,NNW,332,4.0,10.0,16,0.00,,,0.02,33.000000,,2013-02-25 22:21:00,
2013-02-25 15:32:00,47.0,3.0,-100.00,NNW,332,4.0,10.0,16,0.00,,,0.02,33.000000,,2013-02-25 22:32:00,
2013-02-25 15:42:00,47.0,3.0,-100.00,NNW,332,4.0,10.0,16,0.00,,,0.02,33.000000,,2013-02-25 22:42:00,
2013-02-25 15:51:00,47.0,3.0,-100.00,NNW,332,4.0,10.0,16,0.00,,,0.02,33.000000,,2013-02-25 22:51:00,
2013-02-25 16:22:00,45.0,2.0,-100.00,NNW,347,6.0,13.0,16,0.00,,,0.02,39.000000,,2013-02-25 23:22:00,
2013-02-25 16:32:00,45.0,2.0,-100.00,NNW,347,6.0,13.0,16,0.00,,,0.02,39.000000,,2013-02-25 23:32:00,
2013-02-25 16:42:00,45.0,2.0,-100.00,NNW,347,6.0,13.0,16,0.00,,,0.02,39.000000,,2013-02-25 23:42:00,
2013-02-25 16:52:00,45.0,2.0,-100.00,NNW,347,6.0,13.0,16,0.00,,,0.02,39.000000,,2013-02-25 23:52:00,
2013-02-25 17:22:00,39.0,4.0,-100.00,NNW,336,3.0,8.0,23,0.00,,,0.02,155.000000,,2013-02-26 00:22:00,
2013-02-25 17:32:00,39.0,4.0,-100.00,NNW,336,3.0,8.0,23,0.00,,,0.02,155.000000,,2013-02-26 00:32:00,
2013-02-25 17:42:00,39.0,4.0,-100.00,NNW,336,3.0,8.0,23,0.00,,,0.02,155.000000,,2013-02-26 00:42:00,
2013-02-25 17:51:00,39.0,4.0,-100.00,NNW,336,3.0,8.0,23,0.00,,,0.02,155.000000,,2013-02-26 00:51:00,
2013-02-25 18:21:00,29.0,9.0,-100.00,NNW,348,3.0,4.0,42,0.00,,,0.02,7.000000,,2013-02-26 01:21:00,
2013-02-25 18:32:00,29.0,9.0,-100.00,NNW,348,3.0,4.0,42,0.00,,,0.02,7.000000,,2013-02-26 01:32:00,
2013-02-25 18:42:00,29.0,9.0,-100.00,NNW,348,3.0,4.0,42,0.00,,,0.02,7.000000,,2013-02-26 01:42:00,
2013-02-25 18:51:00,29.0,9.0,-100.00,NNW,348,3.0,4.0,42,0.00,,,0.02,7.000000,,2013-02-26 01:51:00,
2013-02-25 19:21:00,24.0,10.0,-100.00,WNW,303,1.0,4.0,55,0.00,,,0.02,0.000000,,2013-02-26 02:21:00,
2013-02-25 19:32:00,24.0,10.0,-100.00,WNW,303,1.0,4.0,55,0.00,,,0.02,0.000000,,2013-02-26 02:32:00,
2013-02-25 19:42:00,24.0,10.0,-100.00,WNW,303,1.0,4.0,55,0.00,,,0.02,0.000000,,2013-02-26 02:42:00,
2013-02-25 19:52:00,24.0,10.0,-100.00,WNW,303,1.0,4.0,55,0.00,,,0.02,0.000000,,2013-02-26 02:52:00,
2013-02-25 20:21:00,23.0,11.0,-100.00,NW,325,2.0,4.0,60,0.00,,,0.02,0.000000,,2013-02-26 03:21:00,
2013-02-25 20:32:00,23.0,11.0,-100.00,NW,325,2.0,4.0,60,0.00,,,0.02,0.000000,,2013-02-26 03:32:00,
2013-02-25 20:42:00,23.0,11.0,-100.00,NW,325,2.0,4.0,60,0.00,,,0.02,0.000000,,2013-02-26 03:42:00,
2013-02-25 20:52:00,23.0,11.0,-100.00,NW,325,2.0,4.0,60,0.00,,,0.02,0.000000,,2013-02-26 03:52:00,
2013-02-25 21:22:00,21.0,10.0,-100.00,North,10,3.0,5.0,62,0.00,,,0.02,0.000000,,2013-02-26 04:22:00,
2013-02-25 21:32:00,21.0,10.0,-100.00,North,10,3.0,5.0,62,0.00,,,0.02,0.000000,,2013-02-26 04:32:00,
2013-02-25 21:42:00,21.0,10.0,-100.00,North,10,3.0,5.0,62,0.00,,,0.02,0.000000,,2013-02-26 04:42:00,
2013-02-25 21:51:00,21.0,10.0,-100.00,North,10,3.0,5.0,62,0.00,,,0.02,0.000000,,2013-02-26 04:51:00,
2013-02-25 22:22:00,19.0,7.0,-100.00,NNW,330,3.0,5.0,58,0.00,,,0.02,0.000000,,2013-02-26 05:22:00,
2013-02-25 22:32:00,19.0,7.0,-100.00,NNW,330,3.0,5.0,58,0.00,,,0.02,0.000000,,2013-02-26 05:32:00,
2013-02-25 22:43:00,19.0,7.0,-100.00,NNW,330,3.0,5.0,58,0.00,,,0.02,0.000000,,2013-02-26 05:43:00,
2013-02-25 22:52:00,19.0,7.0,-100.00,NNW,330,3.0,5.0,58,0.00,,,0.02,0.000000,,2013-02-26 05:52:00,
2013-02-25 23:21:00,17.0,7.0,-100.00,NW,311,2.0,6.0,63,0.00,,,0.02,0.000000,,2013-02-26 06:21:00,
2013-02-25 23:32:00,17.0,7.0,-100.00,NW,311,2.0,6.0,63,0.00,,,0.02,0.000000,,2013-02-26 06:32:00,
2013-02-25 23:42:00,17.0,7.0,-100.00,NW,311,2.0,6.0,63,0.00,,,0.02,0.000000,,2013-02-26 06:42:00,
2013-02-25 23:52:00,17.0,7.0,-100.00,NW,311,2.0,6.0,63,0.00,,,0.02,0.000000,,2013-02-26 06:52:00,